Date,TemperatureHighF,TemperatureAvgF,TemperatureLowF,DewpointHighF,DewpointAvgF,DewpointLowF,HumidityHigh,HumidityAvg,HumidityLow,PressureMaxIn,PressureMinIn,WindSpeedMaxMPH,WindSpeedAvgMPH,GustSpeedMaxMPH,PrecipitationSumIn
2015-1-1,34.3,26.7,19.2,28.0,14.6,6.9,99,61,43,29.98,29.77,12,8,32,0.00
2015-1-2,32.4,29.4,25.5,28.1,25.3,22.5,100,85,72,30.27,29.94,6,4,18,0.00
2015-1-3,55.6,36.1,24.1,55.3,33.7,21.2,100,91,70,30.26,29.65,11,4,30,0.54
2015-1-4,59.7,44.6,27.0,59.5,43.8,23.3,100,97,85,29.95,29.47,12,7,30,0.41
2015-1-5,26.8,15.7,10.0,24.2,12.4,4.9,100,87,72,30.34,29.95,9,6,34,0.01
2015-1-6,19.8,13.6,10.2,16.4,10.9,3.3,100,89,69,30.25,29.84,9,5,22,0.00
2015-1-7,15.6,12.0,8.1,15.4,6.9,0.0,99,80,64,30.31,29.84,8,4,27,0.00
2015-1-8,15.3,10.8,6.1,13.4,1.4,-7.0,100,68,38,30.27,29.70,13,8,36,0.00
2015-1-9,20.1,15.4,6.8,18.5,12.4,3.1,100,88,71,30.14,29.65,12,8,27,0.00
2015-1-10,17.2,10.4,2.3,6.4,1.6,-1.9,97,69,46,30.35,30.13,8,5,23,0.00
2015-1-11,36.7,27.0,16.3,32.0,13.2,1.5,100,57,43,30.32,30.18,8,5,24,0.00
2015-1-12,32.2,29.5,20.1,31.9,28.5,15.1,99,96,79,30.40,30.09,6,2,17,0.00
2015-1-13,22.6,12.7,-1.1,15.2,7.4,-3.7,93,79,58,30.59,30.34,5,2,17,0.00
2015-1-14,30.2,15.3,-0.6,15.8,7.2,-2.9,100,72,40,30.33,30.13,5,2,20,0.00
2015-1-15,31.6,21.0,4.1,21.6,12.4,4.2,100,72,37,30.14,29.77,9,4,24,0.00
2015-1-16,31.5,24.0,5.7,29.9,18.9,3.3,100,81,68,30.17,29.75,10,4,24,0.00
2015-1-17,45.0,27.3,4.1,31.5,18.9,2.1,94,72,58,30.17,29.62,12,6,29,0.00
2015-1-18,45.9,38.4,32.5,39.4,34.2,30.5,100,87,58,29.74,29.57,10,6,27,0.17
2015-1-19,32.4,30.3,26.2,32.1,29.0,22.4,100,95,84,29.88,29.73,5,2,14,0.00
2015-1-20,30.7,24.3,16.7,23.8,20.9,16.5,100,87,73,29.96,29.82,3,1,8,0.00
2015-1-21,32.9,23.1,12.0,29.2,22.0,11.8,100,96,76,29.99,29.87,2,0,8,0.00
2015-1-22,33.1,25.5,21.2,26.7,24.0,18.8,100,94,71,30.31,29.99,6,2,15,0.00
2015-1-23,37.4,26.9,20.1,27.7,23.3,19.0,100,86,65,30.28,29.71,7,3,14,0.00
2015-1-24,32.7,27.6,23.0,32.5,27.2,22.8,100,99,93,29.72,29.42,6,2,17,0.00
2015-1-25,32.9,23.8,15.8,32.7,20.7,8.7,100,88,70,29.84,29.50,0,0,0,0.00
2015-1-26,23.4,18.3,14.9,20.8,16.0,10.2,100,91,78,29.83,29.69,4,1,14,0.00
2015-1-27,21.0,18.1,8.2,19.1,16.2,7.2,100,92,85,30.04,29.77,5,2,14,0.00
2015-1-28,33.3,14.7,0.9,20.5,10.2,0.1,100,84,55,30.24,30.03,4,1,10,0.00
2015-1-29,36.5,29.6,21.6,34.6,21.3,8.8,99,74,41,30.13,29.61,12,6,31,0.25
2015-1-30,30.0,19.6,12.6,29.8,16.5,7.1,99,88,67,30.28,29.82,6,3,18,0.00
2015-1-31,30.0,21.1,11.5,22.2,14.4,6.6,88,75,58,30.27,30.07,7,3,15,0.00
2015-2-1,30.0,26.1,18.7,29.1,24.5,18.5,100,94,75,30.07,29.46,5,2,14,0.00
2015-2-2,18.5,15.0,9.1,18.3,13.4,4.3,100,93,75,30.05,29.33,8,3,21,0.00
2015-2-3,27.0,18.1,7.2,21.2,10.4,3.5,92,73,51,30.12,30.02,8,4,19,0.00
2015-2-4,35.1,27.8,19.8,33.3,26.7,19.6,100,96,78,30.02,29.82,8,5,19,0.01
2015-2-5,19.9,11.6,5.2,19.7,7.5,-1.0,99,84,67,30.26,29.96,6,3,15,0.00
2015-2-6,26.1,18.5,7.3,19.3,11.9,0.3,86,75,65,30.14,29.98,9,5,27,0.00
2015-2-7,43.0,34.6,26.1,31.3,23.9,16.5,74,65,55,29.98,29.69,8,4,17,0.00
2015-2-8,41.9,28.7,16.2,32.3,27.3,16.0,100,95,67,29.75,29.59,6,2,18,0.00
2015-2-9,21.9,16.4,14.2,17.6,15.2,13.3,100,94,82,30.03,29.75,6,4,18,0.00
2015-2-10,22.6,19.3,15.8,21.4,18.3,14.6,100,96,87,30.14,30.03,4,2,13,0.00
2015-2-11,38.8,28.1,19.0,31.9,25.2,18.3,100,89,62,30.04,29.70,7,3,17,0.05
2015-2-12,30.7,15.4,6.1,30.5,12.2,0.9,100,87,70,30.15,29.71,6,2,20,0.00
2015-2-13,20.1,10.2,1.9,15.3,5.0,-0.6,95,80,59,30.19,29.79,9,3,26,0.00
2015-2-14,25.2,15.4,0.9,24.9,13.2,-2.2,100,91,75,29.93,29.39,10,5,27,0.00
2015-2-15,2.1,-4.2,-10.1,-2.5,-11.7,-17.1,85,70,55,30.33,29.93,6,3,23,0.00
2015-2-16,14.0,-3.2,-17.7,-1.1,-9.5,-21.5,88,75,47,30.32,29.87,3,1,7,0.00
2015-2-17,21.6,7.9,-8.5,7.0,-1.2,-11.2,88,67,48,29.87,29.74,6,2,15,0.00
2015-2-18,19.9,14.7,7.5,17.0,11.8,4.8,100,88,61,29.80,29.59,8,4,24,0.00
2015-2-19,7.2,1.5,-6.2,4.4,-4.1,-10.6,89,77,60,30.12,29.80,8,4,21,0.00
2015-2-20,14.0,0.5,-10.3,-3.5,-9.3,-14.2,85,64,39,30.28,30.05,8,2,26,0.00
2015-2-21,28.6,20.3,10.6,25.9,14.2,-3.3,100,79,47,30.05,29.80,11,3,26,0.00
2015-2-22,34.5,22.3,14.9,23.8,19.0,14.7,99,88,61,30.14,29.98,6,2,17,0.05
2015-2-24,24.4,22.4,19.9,10.5,0.9,-6.9,66,40,25,29.20,29.16,10,7,25,0.01
2015-2-25,6.3,5.1,3.9,1.2,0.4,-0.8,83,80,78,29.57,29.52,1,0,4,0.00
2015-2-26,16.9,10.7,5.2,12.1,5.9,0.0,87,80,72,29.76,29.49,6,2,15,0.00
2015-2-27,20.3,7.9,-3.1,7.0,1.2,-5.9,88,74,48,30.15,29.75,4,2,12,0.00
2015-2-28,30.9,12.3,-0.2,10.5,1.7,-5.8,83,64,37,30.26,30.02,4,1,9,0.00
2015-3-1,35.2,24.0,11.3,28.9,21.3,5.6,100,89,61,30.03,29.65,6,2,14,0.08
2015-3-2,30.0,21.8,9.3,21.2,17.6,8.2,100,85,64,29.93,29.67,8,4,21,0.00
2015-3-3,41.2,27.1,9.5,40.9,24.4,8.7,100,89,63,29.87,29.07,11,4,27,0.20
2015-3-4,36.9,32.5,24.3,36.6,28.8,16.9,99,86,67,29.60,29.20,9,4,21,0.00
2015-3-5,24.1,13.4,3.2,17.0,4.5,0.1,86,67,52,29.99,29.60,6,2,18,0.00
2015-3-6,27.9,14.5,-1.8,17.7,4.6,-4.6,89,66,41,29.99,29.71,8,3,24,0.00
2015-3-7,41.4,29.5,20.3,32.8,21.7,8.3,92,73,53,29.70,29.45,11,5,24,0.00
2015-3-8,44.4,36.0,29.8,34.0,29.9,24.8,100,80,52,29.65,29.48,7,3,18,0.00
2015-3-9,50.9,38.8,29.5,35.4,31.1,26.1,100,75,53,29.70,29.57,6,2,15,0.00
2015-3-10,49.6,41.4,30.7,44.7,35.8,28.3,100,81,62,29.70,29.44,5,3,14,0.00
2015-3-11,46.9,40.4,34.0,44.3,34.5,23.1,99,81,48,29.83,29.45,5,3,14,0.00
2015-3-12,46.4,33.8,21.9,26.3,17.4,-4.0,84,55,12,30.09,29.83,5,1,14,0.00
2015-3-13,58.8,45.6,25.2,40.3,11.5,-2.2,82,30,10,30.01,29.59,9,4,21,0.00
2015-3-14,47.3,41.4,36.1,47.0,39.4,29.9,100,93,69,29.59,29.27,6,4,21,0.08
2015-3-15,37.0,33.8,30.9,30.5,27.7,25.5,84,78,69,29.67,29.40,7,4,17,0.00
2015-3-16,55.8,45.5,32.0,40.9,32.3,25.6,82,61,43,29.59,29.17,7,4,19,0.00
2015-3-17,58.8,39.4,28.0,39.6,24.5,2.9,100,60,21,29.67,29.13,7,3,21,0.05
2015-3-18,41.9,31.4,23.5,18.7,13.0,2.2,74,49,19,29.73,29.65,7,2,17,0.00
2015-3-19,39.0,29.0,18.7,19.8,8.2,-7.1,79,47,14,29.85,29.67,7,1,11,0.00
2015-3-20,51.6,39.6,29.5,33.5,20.3,8.4,84,48,21,29.67,29.51,7,2,17,0.01
2015-3-21,43.0,37.7,28.8,38.5,32.0,22.2,100,80,59,29.64,29.42,10,4,28,0.14
2015-3-22,31.8,25.0,19.0,21.5,9.5,3.4,74,52,31,29.77,29.63,5,1,14,0.00
2015-3-23,29.8,21.5,15.3,13.5,5.6,-1.4,80,52,27,29.84,29.75,5,2,15,0.00
2015-3-24,42.1,27.5,15.1,13.2,5.4,-11.1,69,42,10,29.82,29.73,3,1,10,0.00
2015-3-25,51.8,40.9,23.7,46.0,29.8,13.0,99,66,37,29.73,29.37,11,5,28,0.06
2015-3-26,49.8,37.3,34.0,43.6,36.1,33.0,100,96,67,29.46,29.27,7,2,13,0.40
2015-3-27,34.5,28.1,19.4,34.3,21.2,6.1,99,76,54,29.54,29.33,3,0,7,0.00
2015-3-28,30.0,21.8,16.3,10.3,4.8,-5.1,74,50,23,29.76,29.52,6,2,16,0.00
2015-3-29,46.4,32.9,17.1,17.4,2.2,-11.3,68,35,10,29.79,29.31,12,5,29,0.00
2015-3-30,50.5,41.1,30.4,32.9,24.8,9.1,76,54,26,29.45,29.20,12,7,30,0.00
2015-3-31,43.9,34.2,27.1,35.2,26.3,20.7,100,74,43,29.48,29.23,4,1,14,0.44
2015-4-1,55.4,38.4,25.5,33.6,26.3,21.3,100,66,31,29.65,29.47,3,1,10,0.00
2015-4-2,70.3,55.4,45.5,59.6,29.8,1.0,100,45,10,29.55,29.18,13,7,32,0.20
2015-4-3,61.2,49.2,40.5,51.9,44.8,38.2,99,86,51,29.35,29.23,3,1,13,0.22
2015-4-4,43.7,36.2,29.1,40.6,15.4,-14.1,100,52,10,29.68,29.30,8,3,23,0.04
2015-4-5,48.7,39.7,33.8,40.4,27.4,15.2,100,63,32,29.65,29.58,5,1,14,0.19
2015-4-6,66.0,48.0,33.8,37.2,25.1,3.5,79,46,10,29.65,29.56,6,1,17,0.01
2015-4-7,45.1,40.5,35.1,37.5,32.5,27.9,100,74,53,29.69,29.59,6,2,19,0.05
2015-4-8,61.0,42.6,34.3,54.8,40.1,31.3,100,91,72,29.65,29.40,8,2,27,0.40
2015-4-9,68.0,50.2,34.9,62.8,49.3,34.6,100,97,72,29.57,29.20,10,3,26,0.28
2015-4-10,65.8,53.8,41.9,62.6,48.5,37.4,100,83,59,29.41,29.02,15,8,42,0.12
2015-4-11,52.9,43.0,35.4,41.4,35.5,31.2,100,77,46,29.72,29.41,7,3,21,0.13
2015-4-12,65.7,53.1,41.5,41.9,36.7,32.6,77,56,32,29.77,29.63,4,2,11,0.00
2015-4-13,82.9,65.2,48.9,60.5,46.9,31.3,99,56,34,29.64,29.35,13,6,30,0.26
2015-4-14,64.6,51.9,41.4,48.0,39.2,24.9,100,66,23,29.75,29.63,3,1,8,0.01
2015-4-15,61.3,49.2,33.1,42.6,29.0,18.0,97,53,20,29.85,29.72,6,2,15,0.00
2015-4-16,68.0,54.5,46.6,53.1,36.3,19.2,100,57,16,29.83,29.55,9,4,24,0.33
2015-4-17,67.8,57.0,47.8,57.2,53.4,47.6,100,89,59,29.57,29.50,6,3,17,0.01
2015-4-18,73.2,60.3,46.6,50.9,42.7,21.3,99,56,23,29.62,29.46,6,2,15,0.00
2015-4-19,75.6,55.0,36.7,54.2,36.7,28.2,99,53,23,29.63,29.09,8,2,30,0.12
2015-4-20,74.1,57.3,48.0,62.7,53.3,44.5,100,87,56,29.08,28.84,12,8,38,0.18
2015-4-21,56.5,49.2,43.9,45.1,36.1,27.7,92,62,37,29.18,29.08,16,6,39,0.05
2015-4-22,49.1,41.6,35.6,41.9,35.7,29.0,100,80,55,29.28,29.09,10,6,27,0.07
2015-4-23,36.5,34.2,32.5,34.3,28.7,24.7,100,80,67,29.48,29.24,6,4,17,0.00
2015-4-24,46.9,38.5,30.0,32.8,27.3,21.5,83,65,41,29.55,29.48,8,3,23,0.00
2015-4-25,51.6,40.4,29.7,32.2,28.2,23.2,89,64,38,29.50,29.24,7,2,18,0.00
2015-4-26,59.4,44.2,28.6,38.4,33.3,26.3,94,67,35,29.34,29.24,4,1,11,0.00
2015-4-27,47.5,42.5,39.2,43.3,40.1,36.6,100,92,79,29.50,29.30,4,2,11,0.18
2015-4-28,59.5,47.9,32.7,45.0,40.6,32.5,100,78,56,29.57,29.42,5,2,12,0.00
2015-4-29,64.8,51.8,37.8,46.5,41.6,37.5,100,71,44,29.42,29.24,5,2,12,0.00
2015-4-30,54.0,46.5,42.4,52.6,45.5,39.4,100,96,78,29.40,29.21,2,0,6,0.21
2015-5-1,45.5,44.1,42.4,45.2,43.9,42.2,99,99,99,29.41,29.40,0,0,2,0.00
2015-5-2,67.5,60.8,54.1,47.1,45.3,44.1,69,57,46,29.57,29.55,2,1,6,0.00
2015-5-5,70.2,58.0,51.4,64.5,56.3,51.2,99,94,73,29.76,29.71,4,1,11,0.20
2015-5-6,74.8,62.6,51.1,67.4,58.4,50.8,99,87,65,29.74,29.64,4,1,9,0.15
2015-5-7,84.0,73.6,63.7,64.2,57.0,53.7,79,58,38,29.91,29.83,3,0,7,0.00
2015-5-8,91.4,77.0,65.5,62.7,58.6,54.6,82,55,33,29.86,29.78,5,2,14,0.00
2015-5-9,93.2,76.4,65.1,71.5,63.0,58.4,99,66,35,29.88,29.79,7,2,17,0.09
2015-5-10,89.2,74.5,67.6,75.0,68.1,65.1,100,82,55,29.88,29.78,5,2,14,0.17
2015-5-11,88.7,76.1,66.0,70.0,67.8,64.2,100,78,52,29.80,29.57,7,2,24,0.21
2015-5-12,71.1,59.6,50.9,70.4,53.8,46.4,100,82,60,29.90,29.61,10,6,29,0.02
2015-5-13,52.3,47.6,42.8,47.9,43.7,39.8,100,86,74,30.21,29.90,6,2,22,0.00
2015-5-14,64.4,52.6,36.3,47.4,40.9,36.1,99,68,39,30.27,30.02,4,1,11,0.00
2015-5-15,66.9,58.9,50.2,58.3,47.7,43.6,85,67,54,30.02,29.89,5,2,17,0.02
2015-5-16,75.2,69.4,64.9,69.4,67.2,64.7,100,93,79,29.93,29.84,4,2,13,0.07
2015-5-17,81.7,71.2,63.0,77.2,69.1,62.7,100,93,69,29.97,29.84,3,1,10,0.22
2015-5-18,84.4,73.6,67.6,74.5,70.7,67.4,100,92,66,29.86,29.75,5,3,14,0.08
2015-5-19,70.7,61.2,49.5,70.4,55.7,45.8,100,83,62,29.88,29.71,6,3,18,0.01
2015-5-20,59.4,49.1,41.9,45.9,38.8,34.2,87,69,47,29.96,29.83,3,2,14,0.00
2015-5-21,66.6,54.7,46.4,43.1,39.1,30.4,83,58,27,29.84,29.71,5,2,17,0.00
2015-5-22,61.7,54.5,40.3,46.4,38.0,22.2,89,56,23,30.11,29.74,7,3,21,0.00
2015-5-23,74.3,53.6,34.5,41.5,33.0,7.9,100,55,10,30.23,30.09,3,1,11,0.00
2015-5-24,84.7,68.6,50.4,56.9,47.0,37.6,69,48,27,30.11,29.93,6,2,14,0.00
2015-5-25,87.8,75.8,66.9,73.6,60.3,47.4,93,60,47,29.93,29.78,9,4,24,0.06
2015-5-26,86.9,77.0,70.2,70.7,67.3,64.6,89,73,53,29.91,29.75,7,4,19,0.00
2015-5-27,86.7,74.0,63.3,70.0,65.7,60.6,99,78,46,29.88,29.74,9,5,22,0.27
2015-5-28,82.2,70.1,59.0,65.0,60.1,53.5,99,73,44,30.07,29.85,5,2,15,0.05
2015-5-29,88.9,74.8,62.2,77.3,64.1,56.9,100,71,49,30.03,29.82,5,2,17,0.17
2015-5-30,88.3,76.2,66.9,74.8,70.0,66.7,99,82,59,29.83,29.73,7,3,18,0.34
2015-5-31,66.9,52.9,46.4,66.7,52.6,46.1,99,99,99,29.88,29.77,7,4,30,1.07
2015-6-1,53.8,48.9,45.1,53.8,48.7,44.9,100,99,97,29.99,29.88,6,2,17,0.08
2015-6-2,69.4,60.2,50.9,55.6,51.6,47.6,100,75,53,29.99,29.90,5,2,15,0.00
2015-6-3,76.1,61.9,49.1,56.5,51.9,44.7,100,72,37,29.97,29.86,4,1,14,0.00
2015-6-4,83.3,69.7,56.1,65.5,61.7,55.9,100,77,53,29.93,29.81,5,2,21,0.00
2015-6-5,86.0,71.8,63.0,68.5,64.7,61.4,100,80,55,29.83,29.70,5,2,16,0.00
2015-6-6,68.0,61.7,50.9,65.4,53.4,45.9,100,76,53,29.95,29.77,6,3,18,0.00
2015-6-7,86.0,71.2,48.9,69.7,55.3,41.2,96,59,44,29.89,29.54,8,4,23,0.02
2015-6-8,78.1,71.0,64.6,71.1,67.7,64.3,100,90,69,29.53,29.44,9,3,24,0.25
2015-6-9,73.4,64.1,59.7,68.1,62.0,59.2,100,93,67,29.61,29.42,7,3,19,0.21
2015-6-10,88.3,73.7,61.2,69.2,64.3,59.6,100,75,50,29.62,29.46,10,4,26,0.14
2015-6-11,80.6,69.5,58.6,67.2,59.5,53.8,100,74,46,29.77,29.59,2,0,7,0.01
2015-6-12,92.7,74.3,62.6,74.5,67.9,59.9,100,83,50,29.75,29.56,10,3,26,0.47
2015-6-13,79.3,66.5,59.9,68.2,63.8,59.6,100,92,66,29.87,29.75,3,1,11,0.08
2015-6-14,88.0,74.1,64.8,78.7,71.3,64.5,100,92,63,29.83,29.70,5,2,14,0.96
2015-6-15,85.5,75.4,71.1,77.6,73.7,70.8,100,95,73,29.77,29.67,6,2,17,0.01
2015-6-16,78.4,71.8,59.4,74.1,67.3,57.7,100,87,62,29.93,29.65,4,2,16,0.38
2015-6-17,79.2,66.8,54.7,67.5,61.2,54.4,100,84,56,29.94,29.79,4,0,11,0.00
2015-6-18,81.5,71.5,61.9,77.1,68.3,59.6,100,90,71,29.81,29.67,6,2,18,0.27
2015-6-19,72.9,66.4,57.7,71.4,64.2,57.5,100,93,71,29.87,29.70,5,1,12,0.07
2015-6-20,81.1,68.4,54.9,73.8,65.5,54.6,100,91,76,29.83,29.58,2,0,7,0.00
2015-6-21,81.9,74.2,67.8,74.2,70.5,66.7,100,89,63,29.73,29.57,5,2,19,0.00
2015-6-22,90.7,76.8,65.7,74.4,66.8,54.9,100,75,36,29.84,29.60,7,3,21,0.01
2015-6-23,81.5,73.8,59.5,77.2,68.0,59.3,100,84,52,29.84,29.54,10,4,26,0.51
2015-6-24,81.3,68.4,55.8,65.3,57.1,46.0,99,72,31,29.95,29.83,4,1,10,0.00
2015-6-25,77.2,67.2,57.0,63.2,55.3,47.9,92,67,41,29.90,29.76,3,1,7,0.00
2015-6-26,76.8,67.1,54.5,65.8,59.8,54.2,99,79,56,29.85,29.76,5,2,14,0.00
2015-6-27,68.7,65.0,60.4,66.5,60.4,54.1,100,86,63,29.79,29.42,7,3,20,1.07
2015-6-28,61.9,60.2,57.6,61.6,60.0,57.3,99,99,99,29.67,29.39,3,1,11,0.31
2015-6-29,82.8,69.1,57.6,64.0,59.8,55.6,100,75,43,29.71,29.66,5,1,14,0.00
2015-6-30,78.8,67.7,60.8,68.4,64.4,60.5,100,90,63,29.66,29.54,4,1,11,0.25
2015-7-1,77.2,67.7,63.1,66.1,63.4,60.4,100,87,60,29.73,29.53,5,2,15,0.22
2015-7-2,74.5,66.1,57.4,65.7,58.7,50.7,100,79,46,29.78,29.72,5,1,13,0.00
2015-7-3,77.5,65.6,50.2,60.3,52.9,48.8,100,67,37,29.82,29.69,5,1,12,0.00
2015-7-4,80.4,68.7,56.1,67.0,58.5,49.7,100,73,35,29.86,29.68,4,1,11,0.00
2015-7-5,83.1,71.2,57.0,64.8,59.3,56.4,100,70,43,29.95,29.86,3,1,8,0.00
2015-7-6,86.0,75.3,65.1,80.2,69.6,62.7,100,83,61,29.88,29.74,6,2,14,0.44
2015-7-7,90.1,75.8,64.8,78.6,71.9,64.5,100,89,57,29.76,29.63,9,4,29,0.38
2015-7-8,73.6,65.2,60.6,66.5,62.5,60.1,100,91,69,29.88,29.76,3,1,12,0.14
2015-7-9,73.8,65.2,61.7,71.3,64.7,61.4,100,98,85,29.83,29.62,2,1,11,1.18
2015-7-10,80.8,69.0,57.6,68.6,60.9,52.0,100,79,38,29.91,29.79,3,1,9,0.00
2015-7-11,85.6,71.7,56.8,67.5,60.5,56.6,99,72,39,29.97,29.89,3,1,10,0.00
2015-7-12,88.2,72.1,59.4,66.6,61.2,58.5,100,72,39,29.91,29.74,3,1,8,0.00
2015-7-13,89.4,75.6,63.7,73.7,67.0,60.2,100,78,40,29.75,29.43,4,1,12,0.64
2015-7-14,83.8,74.3,69.3,79.5,71.8,69.0,100,93,72,29.43,29.28,6,2,16,0.59
2015-7-15,70.9,64.3,55.0,69.9,58.8,49.7,100,83,52,29.83,29.41,6,2,21,0.01
2015-7-16,78.1,66.0,50.7,62.9,56.2,50.5,100,74,44,29.91,29.79,4,1,11,0.00
2015-7-17,84.4,73.2,62.6,76.5,66.3,57.1,100,79,68,29.81,29.61,9,4,22,0.00
2015-7-18,90.1,81.8,75.9,80.0,75.3,70.6,100,82,53,29.73,29.60,5,2,15,0.00
2015-7-19,93.9,82.4,73.9,78.2,75.0,71.3,100,79,59,29.68,29.55,6,2,14,0.00
2015-7-20,86.0,77.4,67.6,76.7,71.8,67.4,100,85,57,29.62,29.57,5,1,14,0.00
2015-7-21,82.2,75.4,61.9,72.0,62.4,55.3,91,66,46,30.07,29.91,4,2,14,0.00
2015-7-22,78.1,70.2,61.7,58.5,56.2,53.0,88,63,45,30.22,30.06,5,2,17,0.00
2015-7-23,85.1,71.7,59.0,66.6,57.6,49.9,95,64,31,30.25,30.19,4,2,14,0.00
2015-7-24,87.1,73.7,60.6,64.7,58.1,49.3,95,62,29,30.26,30.20,3,1,9,0.00
2015-7-25,91.6,78.7,67.3,67.3,60.9,54.1,74,55,42,30.23,30.11,5,2,15,0.00
2015-7-26,89.1,77.7,65.7,75.3,68.1,58.4,100,76,36,30.22,30.14,3,1,11,0.00
2015-7-27,90.0,76.5,62.1,71.2,65.8,61.8,99,73,44,30.28,30.19,3,1,11,0.00
2015-7-28,92.8,80.0,64.8,71.9,65.9,61.8,100,66,37,30.29,30.20,3,1,9,0.00
2015-7-29,96.1,82.3,70.5,75.8,67.4,60.0,78,62,35,30.25,30.10,4,1,11,0.00
2015-7-30,86.5,77.8,66.9,77.6,66.9,59.5,100,72,42,30.17,30.09,6,3,22,0.73
2015-7-31,86.7,77.2,66.4,71.4,65.5,56.9,100,71,37,30.17,30.04,7,2,23,0.00
2015-8-1,83.1,74.9,64.2,67.9,62.8,56.6,100,68,43,30.16,30.06,5,2,18,0.00
2015-8-2,93.0,78.7,65.1,67.0,61.4,55.6,85,58,34,30.15,29.92,11,4,28,0.00
2015-8-3,83.5,73.3,66.7,68.2,64.5,60.2,96,75,58,30.06,29.92,9,3,24,0.00
2015-8-4,83.3,73.5,63.7,68.5,62.4,54.3,99,72,38,30.19,30.05,7,2,21,0.00
2015-8-5,79.3,70.4,61.0,66.6,59.9,51.5,100,72,50,30.30,30.18,5,1,15,0.00
2015-8-6,78.3,66.6,53.6,59.9,56.8,51.6,100,74,48,30.30,30.17,4,1,11,0.00
2015-8-7,82.9,70.7,57.7,63.2,59.6,56.6,100,70,41,30.21,30.14,6,2,17,0.00
2015-8-8,86.5,73.0,63.5,66.3,60.5,56.3,79,65,47,30.25,30.16,5,2,14,0.00
2015-8-9,85.8,72.9,63.0,64.3,59.4,50.9,89,65,34,30.27,30.20,3,1,11,0.00
2015-8-10,88.2,73.8,63.7,75.1,67.5,59.1,99,82,54,30.22,29.99,5,1,13,0.31
2015-8-11,81.1,71.8,67.5,70.8,67.3,64.6,100,87,59,30.18,29.99,4,1,14,0.00
2015-8-12,81.0,69.2,59.0,66.6,62.3,53.7,100,80,52,30.30,30.18,4,2,14,0.00
2015-8-13,82.4,68.9,52.9,66.9,59.5,52.0,100,74,46,30.34,30.29,7,2,20,0.00
2015-8-14,88.3,77.3,70.3,70.1,65.3,61.7,79,67,49,30.37,30.29,7,3,21,0.00
2015-8-15,88.7,76.8,66.2,73.9,68.8,64.9,100,78,47,30.39,30.28,4,1,10,0.00
2015-8-16,90.9,77.2,64.4,72.7,67.6,64.1,100,75,47,30.42,30.31,4,1,11,0.00
2015-8-17,93.4,75.6,70.3,76.5,69.6,67.6,99,83,49,30.34,30.24,4,1,8,0.00
2015-8-18,88.7,76.5,68.5,76.7,72.7,68.3,100,89,56,30.26,30.11,5,1,13,0.83
2015-8-19,93.0,78.4,69.1,73.7,70.9,68.6,99,81,45,30.14,30.02,6,2,18,0.00
2015-8-20,79.0,74.5,69.6,76.9,68.8,59.9,100,83,59,30.23,29.99,7,4,21,0.51
2015-8-21,79.7,70.9,59.0,60.5,54.1,50.5,95,57,39,30.40,30.22,5,2,18,0.00
2015-8-22,82.0,68.6,55.2,60.8,56.7,50.1,100,70,36,30.45,30.32,4,1,11,0.00
2015-8-23,85.6,72.9,61.2,64.6,59.4,54.7,86,64,35,30.33,30.05,7,2,14,0.00
2015-8-24,79.5,71.7,65.1,69.7,59.1,52.7,96,65,49,30.15,30.04,7,3,18,0.00
2015-8-25,66.7,61.7,57.7,62.8,58.5,51.6,100,90,59,30.24,30.10,5,2,15,0.27
2015-8-26,75.2,61.8,57.6,65.8,60.1,57.3,100,95,57,30.34,30.22,4,1,13,0.30
2015-8-27,74.3,64.4,56.3,65.3,59.8,56.0,100,87,60,30.42,30.34,3,0,11,0.04
2015-8-28,78.3,65.6,53.2,62.5,58.8,53.0,100,81,52,30.47,30.39,4,1,10,0.00
2015-8-29,86.2,70.9,58.8,68.4,62.6,58.6,100,78,48,30.41,30.30,3,1,8,0.04
2015-8-30,86.2,70.5,66.7,74.2,68.8,66.5,100,95,59,30.34,30.25,3,1,9,0.05
2015-8-31,89.2,77.3,68.2,75.2,71.4,67.9,100,83,59,30.33,30.25,4,2,11,0.00
2015-9-1,90.3,76.9,64.9,74.6,69.9,64.7,99,81,55,30.34,30.28,4,1,11,0.00
2015-9-2,92.3,78.6,68.5,76.9,71.9,68.3,100,82,56,30.31,30.18,4,1,11,0.00
2015-9-3,90.5,78.5,70.0,77.9,73.8,69.7,100,87,59,30.20,30.14,3,1,9,0.00
2015-9-4,91.9,78.0,69.3,76.3,71.9,67.1,100,83,45,30.37,30.19,8,1,24,0.05
2015-9-5,91.4,78.0,68.7,76.1,72.1,68.5,100,84,54,30.41,30.32,6,2,17,0.00
2015-9-6,93.2,80.2,70.3,75.5,71.0,66.6,100,77,45,30.38,30.30,5,2,14,0.00
2015-9-7,95.4,82.2,72.3,72.6,70.0,67.2,95,69,43,30.31,30.21,6,2,17,0.00
2015-9-8,93.9,82.5,73.4,73.5,69.7,67.4,85,66,49,30.25,30.08,6,2,12,0.00
2015-9-9,81.1,77.1,70.5,75.0,69.1,59.5,94,77,67,30.19,30.07,5,2,14,0.00
2015-9-10,81.1,69.0,59.0,61.6,58.8,54.4,100,71,43,30.20,30.09,4,1,13,0.00
2015-9-11,81.5,66.3,55.6,66.0,59.6,55.3,99,82,49,30.14,30.08,4,1,11,1.57
2015-9-12,64.4,58.4,54.5,63.4,58.0,54.2,100,99,89,30.11,29.99,5,3,21,2.60
2015-9-13,65.7,59.0,54.0,55.6,50.9,46.2,100,76,53,30.22,30.03,4,2,20,0.20
2015-9-14,76.6,64.5,53.8,57.6,51.2,46.3,84,64,40,30.46,30.22,5,2,22,0.00
2015-9-15,86.2,70.1,58.5,63.3,56.5,51.8,100,66,36,30.59,30.46,4,1,11,0.00
2015-9-16,87.6,72.1,61.3,64.3,59.9,56.9,100,69,40,30.60,30.44,4,1,10,0.00
2015-9-17,88.5,72.7,60.8,65.0,60.0,54.7,100,69,34,30.44,30.25,4,1,9,0.00
2015-9-18,86.9,73.4,62.6,63.7,60.7,57.7,89,67,40,30.25,30.11,8,2,18,0.00
2015-9-19,81.5,69.9,60.8,71.2,64.4,54.3,100,83,68,30.27,29.98,8,4,24,0.48
2015-9-20,70.9,62.4,54.5,59.4,54.0,50.4,100,75,52,30.44,30.26,4,2,14,0.01
2015-9-21,78.6,61.7,45.7,57.9,51.6,43.2,96,72,41,30.44,30.35,5,1,15,0.00
2015-9-22,79.0,64.6,55.2,65.4,58.8,54.3,100,83,56,30.49,30.39,5,2,16,0.00
2015-9-23,80.1,65.2,54.3,65.1,58.8,54.1,100,82,55,30.57,30.48,3,1,11,0.00
2015-9-24,82.9,66.8,50.7,65.8,58.9,50.3,100,79,36,30.59,30.50,4,1,16,0.00
2015-9-25,83.5,69.0,60.8,65.4,60.4,58.4,100,76,47,30.58,30.50,4,1,13,0.00
2015-9-26,81.0,66.0,55.9,66.4,60.5,55.7,100,84,49,30.64,30.54,3,1,12,0.00
2015-9-27,81.9,67.0,58.5,63.1,58.3,53.3,87,74,52,30.56,30.39,7,4,24,0.00
2015-9-28,73.9,68.0,63.3,72.2,66.8,61.8,100,96,83,30.40,30.25,6,4,20,0.11
2015-9-29,74.8,68.4,60.3,74.2,68.1,60.0,100,99,93,30.26,30.14,5,2,19,0.35
2015-9-30,61.0,57.7,54.0,60.7,56.7,48.4,100,97,79,30.40,30.14,5,3,22,0.28
2015-10-1,60.3,53.0,48.2,49.4,46.3,41.2,93,78,65,30.55,30.40,8,3,25,0.00
2015-10-2,56.8,48.5,43.0,44.8,40.2,34.9,88,73,56,30.56,30.52,8,3,27,0.00
2015-10-3,45.9,45.0,43.9,45.6,40.5,19.1,100,85,35,30.54,30.44,4,2,15,0.29
2015-10-4,69.6,60.2,49.3,58.8,55.2,49.0,100,85,63,29.92,29.83,4,1,11,0.00
2015-10-5,74.3,61.1,50.0,61.0,56.3,49.7,100,86,54,29.87,29.78,3,1,9,0.00
2015-10-6,70.0,59.9,50.5,64.6,58.4,50.3,100,95,78,29.80,29.71,1,0,7,0.00
2015-10-7,75.7,61.9,52.7,63.3,57.7,52.4,100,88,56,29.81,29.70,5,1,14,0.01
2015-10-8,76.3,62.1,47.1,62.0,55.8,46.9,100,82,54,29.81,29.53,7,1,22,0.00
2015-10-9,70.0,63.1,54.1,66.1,58.6,48.3,100,86,74,29.79,29.49,8,3,23,0.05
2015-10-10,69.3,55.0,46.4,51.1,47.4,44.5,100,78,44,29.86,29.67,3,1,11,0.00
2015-10-11,75.4,61.9,47.7,50.1,46.0,42.5,100,59,32,29.68,29.45,8,5,18,0.00
2015-10-12,79.5,66.4,55.0,53.4,47.5,40.4,77,53,26,29.48,29.14,10,6,26,0.01
2015-10-13,65.3,59.3,54.7,59.0,54.8,50.6,100,86,66,29.36,29.10,11,5,22,0.21
2015-10-14,62.8,55.0,50.5,53.1,47.6,42.2,100,77,56,29.64,29.36,3,2,15,0.02
2015-10-15,69.6,53.0,42.4,51.8,45.1,37.3,100,78,37,29.65,29.54,11,4,27,0.14
2015-10-16,62.1,51.7,45.3,50.2,44.9,37.9,99,79,51,29.80,29.55,6,2,20,0.27
2015-10-17,52.0,43.2,38.5,39.6,34.6,29.8,100,72,49,29.95,29.80,5,2,16,0.02
2015-10-18,51.6,41.1,33.8,38.2,34.0,29.8,99,77,47,30.07,29.93,5,2,18,0.15
2015-10-19,62.4,48.4,32.4,36.6,32.9,29.7,100,61,33,30.08,29.74,11,5,31,0.00
2015-10-20,79.0,63.8,56.5,53.3,41.3,33.1,83,45,28,29.85,29.75,9,4,24,0.00
2015-10-21,70.0,65.1,57.4,47.0,44.0,41.0,64,47,39,29.95,29.76,8,3,18,0.00
2015-10-22,67.5,62.6,52.2,59.2,51.7,42.9,100,69,42,29.94,29.73,8,3,20,0.00
2015-10-23,60.1,49.5,41.0,46.1,42.3,38.4,100,78,48,30.02,29.85,4,1,12,0.00
2015-10-24,64.9,58.3,47.5,64.0,47.2,32.1,99,69,43,29.85,29.49,10,6,27,0.25
2015-10-25,63.0,55.2,48.4,60.7,48.6,41.3,100,80,52,30.02,29.55,6,2,18,0.00
2015-10-26,63.3,46.7,37.8,45.2,39.5,35.0,99,79,43,30.14,30.02,4,1,15,0.00
2015-10-27,64.8,52.5,41.4,46.9,35.8,33.1,81,55,34,30.10,29.81,5,1,18,0.00
2015-10-28,64.0,57.5,50.9,63.8,56.7,47.1,100,97,77,29.81,29.12,11,6,38,0.77
2015-10-29,58.3,49.8,44.2,58.0,40.6,29.8,100,72,42,29.49,29.13,12,7,30,0.12
2015-10-30,50.5,46.8,43.3,45.6,42.7,38.8,100,86,76,29.93,29.49,6,2,15,0.07
2015-10-31,55.9,50.2,44.2,46.8,39.5,37.1,80,67,53,29.95,29.61,9,2,23,0.00
2015-11-1,67.6,57.3,51.3,55.1,48.4,36.0,100,75,32,29.79,29.51,9,5,29,0.13
2015-11-2,71.6,53.7,40.1,53.0,45.8,39.8,100,77,40,29.89,29.79,3,1,10,0.00
2015-11-3,78.6,63.4,48.6,52.5,45.4,39.1,95,55,33,30.02,29.85,5,1,14,0.00
2015-11-4,84.4,65.8,47.5,60.9,52.0,41.7,95,64,38,30.03,29.92,6,2,17,0.00
2015-11-5,84.4,69.9,61.2,66.2,60.7,57.2,96,73,50,29.95,29.72,5,2,15,0.00
2015-11-6,70.3,63.3,53.6,66.4,58.1,47.1,100,84,69,29.84,29.52,11,6,31,0.20
2015-11-7,58.1,50.3,43.0,47.4,40.8,34.8,89,70,51,30.08,29.84,6,3,21,0.01
2015-11-8,57.6,45.3,33.8,40.1,36.3,32.8,100,72,49,30.22,30.08,4,1,14,0.00
2015-11-9,64.6,45.7,34.2,44.1,37.1,32.7,100,75,36,30.17,29.94,3,1,9,0.00
2015-11-10,54.5,53.0,47.7,54.2,51.6,40.3,99,95,73,29.93,29.68,3,0,10,0.69
2015-11-11,60.6,49.7,43.0,52.8,47.3,42.7,100,92,63,29.82,29.63,6,2,21,0.12
2015-11-12,58.1,49.6,46.0,53.3,45.9,41.5,100,87,67,29.64,29.19,15,9,39,0.22
2015-11-13,49.5,42.8,36.5,47.4,39.5,34.2,100,89,70,29.76,29.40,12,7,40,0.64
2015-11-14,44.2,41.6,38.8,39.1,33.2,29.5,95,72,62,30.07,29.76,6,4,24,0.01
2015-11-15,66.7,53.1,43.0,46.3,37.8,29.8,87,57,40,30.06,29.97,8,4,18,0.00
2015-11-16,70.3,53.4,37.9,43.1,38.2,34.9,95,60,28,30.08,30.01,5,2,11,0.00
2015-11-17,71.1,56.4,37.9,44.6,39.8,36.4,96,57,29,30.08,29.90,10,3,29,0.00
2015-11-18,63.7,60.4,54.0,57.2,49.5,44.8,82,67,60,29.93,29.65,13,9,36,0.00
2015-11-19,67.5,59.0,45.1,60.3,49.3,24.6,95,72,43,29.92,29.62,13,8,37,0.00
2015-11-20,48.0,41.4,36.7,27.3,23.7,21.3,58,49,39,30.08,29.92,11,5,27,0.00
2015-11-21,50.2,43.4,37.4,40.0,22.4,8.9,96,46,19,30.08,29.47,12,3,30,0.06
2015-11-22,39.9,34.4,30.0,37.0,27.8,15.7,100,78,52,29.95,29.57,10,5,27,0.12
2015-11-23,41.9,33.5,29.3,29.1,20.7,13.9,93,61,35,30.00,29.91,7,4,20,0.00
2015-11-24,43.5,39.0,34.2,33.7,30.7,23.4,86,72,60,30.29,29.95,5,2,14,0.00
2015-11-25,61.2,45.7,34.2,34.1,29.8,25.4,83,56,32,30.37,30.22,10,4,28,0.00
2015-11-26,67.3,56.2,47.3,44.3,37.3,28.9,56,49,41,30.36,30.22,11,8,32,0.00
2015-11-27,64.0,56.3,42.4,63.8,47.7,40.7,100,76,49,30.22,30.04,11,6,27,0.27
2015-11-28,42.4,39.5,38.3,42.2,38.6,35.1,100,96,87,30.14,30.08,4,2,11,0.09
2015-11-29,43.7,36.1,27.5,35.2,31.5,25.7,94,84,67,30.20,30.10,5,2,13,0.00
2015-11-30,54.7,36.7,21.0,40.1,30.7,20.8,100,82,43,30.17,29.92,3,1,9,0.00
2015-12-1,54.0,48.1,43.2,53.2,46.5,40.1,100,94,86,29.93,29.63,9,4,24,0.02
2015-12-2,49.5,43.5,38.3,48.3,42.7,38.0,100,97,88,29.73,29.51,6,1,14,0.12
2015-12-3,46.8,40.0,32.7,41.7,36.9,32.5,99,89,72,30.15,29.63,8,3,20,0.35
2015-12-4,41.5,38.9,37.2,37.3,35.1,33.2,91,86,80,30.46,30.13,7,4,18,0.00
2015-12-5,51.4,37.8,27.7,39.3,33.8,27.5,100,87,58,30.54,30.40,5,1,10,0.00
2015-12-6,51.8,40.2,28.0,39.2,34.2,27.8,100,81,57,30.40,30.06,5,2,14,0.00
2015-12-7,54.7,39.7,30.6,43.6,36.6,30.5,100,89,64,30.08,29.97,4,1,8,0.00
2015-12-8,46.6,39.6,32.0,41.1,37.4,31.8,100,92,79,29.98,29.77,7,3,21,0.00
2015-12-9,59.4,49.1,40.3,47.4,42.0,38.9,97,78,52,29.81,29.54,9,6,27,0.00
2015-12-10,56.1,50.6,43.9,47.6,45.7,43.6,100,84,67,29.74,29.49,11,6,33,0.00
2015-12-11,62.4,54.2,47.3,47.4,42.2,32.6,83,65,36,29.85,29.51,11,5,27,0.00
2015-12-12,67.1,56.4,41.9,61.6,54.4,40.9,100,93,82,29.95,29.81,5,1,14,0.00
2015-12-13,66.2,58.9,51.6,63.0,57.5,51.4,100,95,82,29.94,29.67,6,2,20,0.02
2015-12-14,70.9,60.2,47.8,61.4,54.0,46.7,100,81,51,29.67,29.18,10,6,38,0.14
2015-12-15,50.7,45.7,43.0,48.2,43.5,40.5,100,92,80,29.82,29.33,11,5,38,0.01
2015-12-16,51.8,45.2,41.9,45.6,41.9,40.6,100,89,74,29.86,29.52,10,3,29,0.00
2015-12-17,52.2,44.6,37.9,49.4,40.0,30.2,100,84,71,29.70,29.51,9,5,25,0.13
2015-12-18,37.9,33.6,27.1,31.1,26.7,21.1,100,76,58,29.80,29.66,9,5,27,0.00
2015-12-19,33.4,31.1,26.2,28.6,24.5,19.3,100,77,61,30.22,29.80,10,6,27,0.00
2015-12-20,43.3,33.4,23.2,24.7,18.8,13.0,82,57,31,30.29,29.91,13,6,31,0.00
2015-12-21,52.7,47.6,42.4,52.2,36.0,16.2,100,69,29,29.94,29.70,15,8,30,0.09
2015-12-22,61.0,52.7,44.8,59.0,51.8,44.5,100,97,86,29.83,29.59,8,3,21,0.31
2015-12-23,65.5,58.8,45.3,62.0,56.0,45.1,100,91,82,29.81,29.39,10,5,29,0.04
2015-12-24,63.0,53.3,36.5,60.7,43.2,24.0,96,72,24,29.94,29.32,11,5,32,0.04
2015-12-25,58.1,44.0,36.3,47.3,38.9,32.2,99,83,59,30.23,29.92,4,0,12,0.01
2015-12-26,51.1,43.8,36.3,50.8,41.7,36.1,100,93,69,30.25,29.80,9,2,24,0.27
2015-12-27,58.1,45.0,36.3,57.8,43.9,32.1,100,96,84,30.16,29.69,6,2,16,0.84
2015-12-28,39.7,33.5,30.0,38.1,30.0,24.3,100,87,72,30.25,29.53,12,3,42,0.06
2015-12-29,49.1,42.9,38.7,46.5,40.8,34.4,100,93,82,30.00,29.47,15,7,40,0.08
2015-12-30,41.5,38.0,36.7,38.5,35.3,33.4,100,90,84,30.06,29.90,7,3,17,0.00
2015-12-31,36.9,33.0,30.7,36.1,32.1,29.2,100,96,92,30.03,29.95,13,5,19,0.02
2016-1-1,32.0,28.8,26.1,29.4,26.6,24.1,100,91,78,29.97,29.86,10,6,26,0.00
2016-1-2,32.7,29.4,26.1,26.0,24.2,21.9,88,81,75,29.93,29.64,10,6,24,0.00